CYGFM02

Last updated on Sat Apr 13 2024 01:02:16 GMT+0100 (British Summer Time)

1 41886U 16078C 24103.01344211 .00008196 00000+0 30663-3 0 9999 2 41886 34.9581 346.6312 0014336 325.7148 34.2641 15.26480100406132
UTC large
Height (km)
Speed (km/s)
/
Latitude / Longitude
Inclination (degrees)
Orbital Period (minutes)
Azimuth
Elevation
Range (km)
Doppler Factor

Next 0 passes for location: London (51.5072 / 0.1276)

Sorry there are no passes over London.